• In Hungary
  • List of Countries
  • For 7 days
  • Water Temperature
  • Satellite Maps
  • Weather Map
  • News
  • Weather Widgets
  • user-avatar
    Login

    Hourly Weather Akhaltsikhe

    Today, 22 September, Saturday

    Time Temperature Precipitation Wind Pressure Humidity
    00:00 +14°C° 0.2 mm 1 mps 652 mmHg 82%
    01:00 +14°C° 0.2 mm 1 mps 652 mmHg 82%
    02:00 +14°C° 0.2 mm 1 mps 652 mmHg 81%
    03:00 +14°C° 0.2 mm 1 mps 652 mmHg 81%
    04:00 +14°C° 0.1 mm 1 mps 652 mmHg 81%
    05:00 +13°C° 0.1 mm 1 mps 652 mmHg 81%
    06:00 +13°C° 0.1 mm 1 mps 652 mmHg 81%
    07:00 +15°C° 0.1 mm 1 mps 652 mmHg 75%
    08:00 +18°C° 0.1 mm 1 mps 653 mmHg 68%
    09:00 +20°C° 0.1 mm 1 mps 653 mmHg 62%
    10:00 +21°C° 0.6 mm 1 mps 653 mmHg 58%
    11:00 +22°C° 0.6 mm 1 mps 653 mmHg 55%
    12:00 +23°C° 0.6 mm 1 mps 653 mmHg 51%
    13:00 +21°C° 0.3 mm 2 mps 653 mmHg 53%
    14:00 +21°C° 0.3 mm 2 mps 653 mmHg 56%
    15:00 +20°C° 0.3 mm 2 mps 652 mmHg 58%
    16:00 +20°C° 0.5 mm 1 mps 652 mmHg 65%
    17:00 +19°C° 0.5 mm 1 mps 652 mmHg 71%
    18:00 +16°C° 0.5 mm 1 mps 651 mmHg 78%
    19:00 +15°C° 0.3 mm 1 mps 651 mmHg 80%
    20:00 +15°C° 0.3 mm 1 mps 651 mmHg 81%
    21:00 +14°C° 0.3 mm 1 mps 652 mmHg 83%
    22:00 +14°C° 0.1 mm 1 mps 651 mmHg 83%
    23:00 +13°C° 0.1 mm 1 mps 651 mmHg 84%

    Tomorrow, 23 September, Sunday

    Time Temperature Precipitation Wind Pressure Humidity
    00:00 +13°C° 0.1 mm 1 mps 651 mmHg 84%
    01:00 +13°C° 0 mm 1 mps 651 mmHg 84%
    02:00 +12°C° 0 mm 1 mps 651 mmHg 84%
    03:00 +12°C° 0 mm 1 mps 651 mmHg 85%
    04:00 +12°C° 0 mm 1 mps 651 mmHg 85%
    05:00 +11°C° 0 mm 1 mps 651 mmHg 85%
    06:00 +11°C° 0 mm 1 mps 650 mmHg 85%
    07:00 +14°C° 0 mm 1 mps 651 mmHg 76%
    08:00 +16°C° 0 mm 1 mps 652 mmHg 68%
    09:00 +19°C° 0 mm 1 mps 653 mmHg 60%
    10:00 +20°C° 0 mm 1 mps 653 mmHg 56%
    11:00 +20°C° 0 mm 2 mps 653 mmHg 51%
    12:00 +21°C° 0 mm 2 mps 653 mmHg 47%
    13:00 +21°C° 0.1 mm 2 mps 653 mmHg 49%
    14:00 +21°C° 0.1 mm 3 mps 653 mmHg 50%
    15:00 +20°C° 0.1 mm 3 mps 652 mmHg 52%
    16:00 +19°C° 0.2 mm 3 mps 652 mmHg 63%
    17:00 +17°C° 0.2 mm 2 mps 652 mmHg 73%
    18:00 +15°C° 0.2 mm 2 mps 651 mmHg 84%
    19:00 +14°C° 0.1 mm 2 mps 652 mmHg 88%
    20:00 +13°C° 0.1 mm 1 mps 652 mmHg 92%
    21:00 +13°C° 0.1 mm 1 mps 652 mmHg 95%
    22:00 +12°C° 0 mm 1 mps 652 mmHg 95%
    23:00 +12°C° 0 mm 1 mps 652 mmHg 95%

    Day after tomorrow, 24 September, Monday

    Time Temperature Precipitation Wind Pressure Humidity
    00:00 +12°C° 0 mm 1 mps 652 mmHg 95%
    01:00 +11°C° 0 mm 1 mps 652 mmHg 93%
    02:00 +11°C° 0 mm 1 mps 652 mmHg 92%
    03:00 +10°C° 0 mm 1 mps 652 mmHg 91%
    04:00 +10°C° 0 mm 1 mps 652 mmHg 89%
    05:00 +10°C° 0 mm 1 mps 652 mmHg 87%
    06:00 +10°C° 0 mm 1 mps 652 mmHg 85%
    07:00 +12°C° 0 mm 1 mps 652 mmHg 79%
    08:00 +14°C° 0 mm 1 mps 653 mmHg 72%
    09:00 +16°C° 0 mm 1 mps 653 mmHg 66%
    10:00 +17°C° 0 mm 2 mps 654 mmHg 61%
    11:00 +18°C° 0 mm 2 mps 654 mmHg 57%
    12:00 +19°C° 0 mm 2 mps 654 mmHg 53%
    13:00 +19°C° 0 mm 2 mps 653 mmHg 54%
    14:00 +19°C° 0 mm 2 mps 653 mmHg 54%
    15:00 +19°C° 0 mm 2 mps 653 mmHg 55%
    16:00 +18°C° 0 mm 2 mps 652 mmHg 63%
    17:00 +16°C° 0 mm 1 mps 652 mmHg 72%
    18:00 +14°C° 0 mm 1 mps 651 mmHg 80%
    19:00 +14°C° 0 mm 1 mps 651 mmHg 82%
    20:00 +13°C° 0 mm 1 mps 651 mmHg 84%
    21:00 +13°C° 0 mm 1 mps 651 mmHg 85%
    22:00 +12°C° 0 mm 1 mps 651 mmHg 84%
    23:00 +12°C° 0 mm 1 mps 651 mmHg 83%

    25 September, Tuesday

    Time Temperature Precipitation Wind Pressure Humidity
    00:00 +12°C° 0 mm 2 mps 650 mmHg 82%
    01:00 +12°C° 0 mm 2 mps 650 mmHg 80%
    02:00 +12°C° 0 mm 2 mps 650 mmHg 79%
    03:00 +12°C° 0 mm 2 mps 650 mmHg 78%
    04:00 +12°C° 0 mm 2 mps 650 mmHg 77%
    05:00 +12°C° 0 mm 2 mps 650 mmHg 76%
    06:00 +12°C° 0 mm 2 mps 650 mmHg 75%
    07:00 +14°C° 0 mm 2 mps 650 mmHg 66%
    08:00 +18°C° 0 mm 1 mps 651 mmHg 57%
    09:00 +21°C° 0 mm 1 mps 652 mmHg 48%
    10:00 +21°C° 0 mm 2 mps 652 mmHg 43%
    11:00 +23°C° 0 mm 2 mps 652 mmHg 38%
    12:00 +25°C° 0 mm 2 mps 652 mmHg 34%
    13:00 +24°C° 0 mm 2 mps 652 mmHg 35%
    14:00 +24°C° 0 mm 3 mps 652 mmHg 36%
    15:00 +24°C° 0 mm 3 mps 651 mmHg 37%
    16:00 +20°C° 0 mm 3 mps 651 mmHg 45%
    17:00 +18°C° 0 mm 2 mps 650 mmHg 54%
    18:00 +15°C° 0 mm 2 mps 650 mmHg 62%
    19:00 +14°C° 0 mm 2 mps 650 mmHg 67%
    20:00 +13°C° 0 mm 1 mps 650 mmHg 72%
    21:00 +12°C° 0 mm 1 mps 650 mmHg 77%
    22:00 +12°C° 0 mm 1 mps 650 mmHg 79%
    23:00 +11°C° 0 mm 1 mps 650 mmHg 81%

    26 September, Wednesday

    Time Temperature Precipitation Wind Pressure Humidity
    00:00 +11°C° 0 mm 1 mps 650 mmHg 83%
    01:00 +11°C° 0.1 mm 1 mps 650 mmHg 84%
    02:00 +11°C° 0.1 mm 1 mps 650 mmHg 85%
    03:00 +11°C° 0.1 mm 1 mps 650 mmHg 86%
    04:00 +11°C° 0.3 mm 1 mps 650 mmHg 88%
    05:00 +11°C° 0.3 mm 1 mps 651 mmHg 90%
    06:00 +11°C° 0.3 mm 1 mps 651 mmHg 92%
    07:00 +12°C° 0.1 mm 1 mps 651 mmHg 91%
    08:00 +12°C° 0.1 mm 1 mps 651 mmHg 89%
    09:00 +13°C° 0.1 mm 1 mps 651 mmHg 88%
    10:00 +13°C° 0.1 mm 1 mps 651 mmHg 86%
    11:00 +14°C° 0.1 mm 2 mps 651 mmHg 83%
    12:00 +15°C° 0.1 mm 2 mps 651 mmHg 80%
    13:00 +14°C° 0.4 mm 2 mps 651 mmHg 81%
    14:00 +14°C° 0.4 mm 2 mps 650 mmHg 82%
    15:00 +14°C° 0.4 mm 2 mps 650 mmHg 83%
    16:00 +13°C° 0.5 mm 2 mps 650 mmHg 86%
    17:00 +13°C° 0.5 mm 1 mps 650 mmHg 89%
    18:00 +12°C° 0.5 mm 1 mps 650 mmHg 92%
    19:00 +12°C° 0.3 mm 1 mps 650 mmHg 92%
    20:00 +12°C° 0.3 mm 1 mps 650 mmHg 93%
    21:00 +12°C° 0.3 mm 1 mps 650 mmHg 93%
    22:00 +11°C° 0.1 mm 1 mps 650 mmHg 93%
    23:00 +11°C° 0.1 mm 1 mps 650 mmHg 93%

    27 September, Thursday

    Time Temperature Precipitation Wind Pressure Humidity
    00:00 +11°C° 0.1 mm 1 mps 650 mmHg 93%
    01:00 +10°C° 0 mm 1 mps 650 mmHg 92%
    02:00 +10°C° 0 mm 1 mps 650 mmHg 91%
    03:00 +10°C° 0 mm 1 mps 650 mmHg 91%
    04:00 +10°C° 0 mm 1 mps 650 mmHg 90%
    05:00 +10°C° 0 mm 1 mps 650 mmHg 90%
    06:00 +9°C° 0 mm 2 mps 650 mmHg 89%
    07:00 +12°C° 0 mm 2 mps 650 mmHg 82%
    08:00 +14°C° 0 mm 2 mps 651 mmHg 74%
    09:00 +16°C° 0 mm 2 mps 651 mmHg 67%
    10:00 +18°C° 0 mm 3 mps 652 mmHg 60%
    11:00 +20°C° 0 mm 3 mps 652 mmHg 52%
    12:00 +22°C° 0 mm 3 mps 653 mmHg 45%
    13:00 +21°C° 0.1 mm 3 mps 652 mmHg 47%
    14:00 +21°C° 0.1 mm 3 mps 652 mmHg 50%
    15:00 +20°C° 0.1 mm 3 mps 651 mmHg 52%
    16:00 +19°C° 0 mm 2 mps 651 mmHg 60%
    17:00 +17°C° 0 mm 2 mps 651 mmHg 68%
    18:00 +15°C° 0 mm 2 mps 651 mmHg 77%
    19:00 +14°C° 0 mm 2 mps 651 mmHg 79%
    20:00 +14°C° 0 mm 2 mps 651 mmHg 81%
    21:00 +13°C° 0 mm 2 mps 651 mmHg 84%
    22:00 +13°C° 0 mm 2 mps 651 mmHg 83%
    23:00 +12°C° 0 mm 3 mps 651 mmHg 82%
    Show more